This demonstration page uses our WeatherBlox Daily Observations layout. Learn more.

Left ArrowRight Arrow

39.08367, -84.50855

Hourly Observations for January 14, 2015

Temp ( °F °C ) Dew Point ( °F °C ) Humidity (%) Winds ( mph kmh ) Pressure ( in mb ) Visibility ( mi km ) Precip ( " mm )
12:53 am 00:53 Cloudy 20 -6.7 12 -11.1 71 71 NNE 6 9 30.43 1031 10 16.0934 0 0
1:53 am 01:53 Cloudy 19 -7.2 12 -11.1 74 74 NE 6 9 30.42 1030 10 16.0934 0 0
2:53 am 02:53 Cloudy 19 -7.2 11 -11.7 71 71 N 3 6 30.41 1030 10 16.0934 0 0
3:53 am 03:53 Cloudy 19 -7.2 11 -11.7 71 71 NNE 5 7 30.39 1029 10 16.0934 0 0
4:53 am 04:53 Cloudy 19 -7.2 12 -11.1 74 74 Calm 30.39 1029 10 16.0934 0 0
5:53 am 05:53 Cloudy 20 -6.7 12 -11.1 71 71 Calm 30.39 1029 10 16.0934 0 0
6:53 am 06:53 Cloudy 20 -6.7 12 -11.1 71 71 NNW 3 6 30.4 1030 10 16.0934 0 0
7:53 am 07:53 Cloudy 20 -6.7 13 -10.6 74 74 Calm 30.4 1030 9 14.48406 0 0
8:53 am 08:53 Cloudy with Haze 20 -6.7 13 -10.6 74 74 ENE 3 6 30.41 1030 6 9.65604 0 0
9:53 am 09:53 Cloudy with Light Snow 22 -5.6 16 -8.9 78 78 NW 3 6 30.42 1030 4 6.43736 0 0.0254
10:53 am 10:53 Cloudy 23 -5 14 -10 68 68 W 8 13 30.41 1030 10 16.0934 0 0.0254
11:53 am 11:53 Cloudy 24 -4.4 14 -10 65 65 W 8 13 30.39 1029 10 16.0934 0 0
12:53 pm 12:53 Cloudy 25 -3.9 15 -9.4 66 66 WSW 7 11 30.37 1028 10 16.0934 0 0
1:53 pm 13:53 Cloudy 25 -3.9 15 -9.4 66 66 WSW 5 7 30.34 1027 10 16.0934 0 0
2:53 pm 14:53 Mostly Cloudy 26 -3.3 15 -9.4 63 63 VRB 5 7 30.32 1027 10 16.0934 0 0
3:53 pm 15:53 Partly Cloudy 28 -2.2 15 -9.4 58 58 SW 5 7 30.33 1027 10 16.0934 0 0
4:53 pm 16:53 Mostly Sunny 27 -2.8 15 -9.4 61 61 WSW 6 9 30.33 1027 10 16.0934 0 0
5:53 pm 17:53 Mostly Clear 25 -3.9 15 -9.4 66 66 SW 3 6 30.34 1027 10 16.0934 0 0
6:53 pm 18:53 Clear 22 -5.6 16 -8.9 78 78 VRB 3 6 30.34 1027 10 16.0934 0 0
7:53 pm 19:53 Mostly Clear 22 -5.6 16 -8.9 78 78 VRB 3 6 30.34 1027 10 16.0934 0 0
8:53 pm 20:53 Cloudy 21 -6.1 18 -7.8 88 88 Calm 30.34 1027 10 16.0934 0 0
9:53 pm 21:53 Cloudy 22 -5.6 18 -7.8 85 85 Calm 30.33 1027 10 16.0934 0 0
10:53 pm 22:53 Cloudy 22 -5.6 18 -7.8 85 85 Calm 30.32 1027 10 16.0934 0 0
11:53 pm 23:53 Cloudy 22 -5.6 19 -7.2 89 89 SSE 3 6 30.32 1027 10 16.0934 0 0

Powered by AerisWeather